Regional Weather Roundup
Issued by NWS Charleston, SC

Current Version | Previous Version | Graphics & Text | Print | Product List | Glossary On
Versions: 1 2 3 4 5 6 7 8 9 10 11 12 13 14 15 16 17 18 19 20 21 22 23 24 25 26 27 28 29 30 31 32 33 34 35 36 37 38 39 40 41 42 43 44 45 46 47 48 49 50
000 ASUS42 KCHS 270010 RWRCHS REGIONAL WEATHER ROUNDUP NATIONAL WEATHER SERVICE CHARLESTON SC 700 PM EST WED NOV 26 2014 NOTE: "FAIR" INDICATES FEW OR NO CLOUDS BELOW 12,000 FEET WITH NO SIGNIFICANT WEATHER AND/OR OBSTRUCTIONS TO VISIBILITY. NOT ALL STATIONS ARE QUALITY CONTROLLED BY THE NATIONAL WEATHER SERVICE. USE DATA WITH CAUTION...ESPECIALLY DEWPOINT OBSERVATIONS. SCZ027-030-031-034>040-042>050-270100- ...SOUTHEAST SOUTH CAROLINA... CITY SKY/WX TMP DP RH WIND PRES REMARKS N CHARLESTON CLEAR 47 46 97 SW5 30.09R 6HR MIN TEMP: 47; 6HR MAX TEMP: 58; WATERFRONT PRK N/A 52 N/A N/A CALM N/A MOUNT PLEASANT NOT AVBL JOHNS ISLAND CLEAR 52 52 100 CALM 30.10R PINOPOLIS N/A 52 46 82 CALM 30.00R MONCKS CORNER FAIR 48 48 100 CALM 30.08R SUMMERVILLE FAIR 46 46 100 CALM 30.09R BEAUFORT MCAS CLEAR 49 46 90 SW5 30.11R 6HR MIN TEMP: 49; 6HR MAX TEMP: 60; BEAUFORT ARPT FAIR 48 48 100 S3 30.10R HILTON HEAD IS CLEAR 48 46 93 CALM 30.12R WALTERBORO CLEAR 46 N/A N/A CALM 30.09R ALLENDALE FAIR 50 45 81 CALM 30.08R ...SOUTHERN MIDLANDS AND PEE DEE... CITY SKY/WX TMP DP RH WIND PRES REMARKS GEORGETOWN NOT AVBL KINGSTREE NOT AVBL ORANGEBURG CLEAR 47 44 90 CALM 30.07R 6HR MIN TEMP: 47; 6HR MAX TEMP: 59; BARNWELL N/A 46 43 87 CALM 30.08S AIKEN FAIR 46 36 66 SW5 30.09R MANNING NOT AVBL COLUMBIA CLEAR 49 45 86 CALM 30.04S 6HR MIN TEMP: 49; 6HR MAX TEMP: 58; SUMTER CLEAR 46 43 90 CALM 30.04S 6HR MIN TEMP: 46; 6HR MAX TEMP: 55; FLORENCE CLEAR 45 43 93 CALM 30.06S FOG 6HR MIN TEMP: 45; 6HR MAX TEMP: 52; MYRTLE BEACH CLEAR 48 45 87 NW6 30.07R N MYRTLE BEACH CLEAR 49 45 86 CALM 30.07R 6HR MIN TEMP: 49; 6HR MAX TEMP: 53; $$ GAZ063-065-086>088-099>101-113>116-118-119-134>141-150-270100- ...SOUTHEAST GEORGIA... CITY SKY/WX TMP DP RH WIND PRES REMARKS SAVANNAH ARPT CLEAR 52 39 61 SW3 30.11R 6HR MIN TEMP: 50; 6HR MAX TEMP: 62; HUNTER AAF CLEAR 49 42 79 SW2 30.10R 6HR MIN TEMP: 48; 6HR MAX TEMP: 61; FORT STEWART CLEAR 48 43 83 CALM 30.11R 6HR MIN TEMP: 48; 6HR MAX TEMP: 61; STATESBORO NOT AVBL SYLVANIA CLEAR 49 41 74 CALM 30.11R CLAXTON FAIR 46 34 61 CALM 30.11S ...CSRA...CENTRAL AND FAR SOUTHEAST GEORGIA... CITY SKY/WX TMP DP RH WIND PRES REMARKS THOMSON CLEAR 47 38 73 SW3 30.11S AUGUSTA-BUSH CLEAR 42 36 79 SW6 30.07R 6HR MIN TEMP: 42; 6HR MAX TEMP: 62; AUGUSTA-DANIEL CLEAR 51 33 50 CALM 30.07R SWAINSBORO FAIR 48 41 76 CALM 30.11R VIDALIA CLEAR 48 36 61 SW3 30.12R HAZLEHURST FAIR 47 41 78 CALM 30.12S ALMA CLEAR 46 37 71 W3 30.14R 6HR MIN TEMP: 46; 6HR MAX TEMP: 61; WAYCROSS CLEAR 52 41 64 W5 30.15R JESUP FAIR 46 43 87 CALM 30.13F BAXLEY FAIR 46 43 87 CALM 30.13R BRUNSWICK CLEAR 48 43 81 CALM 30.15R SAINT SIMONS CLEAR 52 41 66 W6 30.15R 6HR MIN TEMP: 51; 6HR MAX TEMP: 62; $$ SCZ027-028-034-036>038-045-046-048>050-GAZ119-141-270100- ...LAKE AND SUPPLEMENTAL COASTAL OBSERVATIONS... STATION/POSITION TIME TEMP WIND PRES WAVE SWELL AIR SEA DIR/SP/G HT/PER HT/PER/DIR (UTC) (F) (DEG/KT/KT) (MB) (FT/S) (FT/S/D) UPR LAKE MARION NOT AVBL WINYAH BAY 2300 50 290/ 3 1018.0R LAKE MURRAY 2300 55 230/ 6/ 7 1016.6R ACE BASIN NERRS 2300 50 CALM 1018.0S FORT PULASKI 0000 53 220/ 5/ 6 1020.0R SAPELO ISLAND 2300 57 250/ 7 1020.0R $$ ANZ835-935-AMZ111-154-330-350-352-354-370-450-454-472-270100- ...C-MAN AND BUOY OBSERVATIONS... STATION/POSITION TIME TEMP WIND PRES WAVE SWELL AIR SEA DIR/SP/G HT/PER HT/PER/DIR (UTC) (F) (DEG/KT/KT) (MB) (FT/S) (FT/S/D) FOLLY BEACH CMAN 2300 53 230/ 4/ 5 1019.0R BUOY 41004 0000 59 74 300/ 14/ 17 1018.2R 5/ 9 3/ 9 BUOY 41008 0000 60 64 280/ 16/ 19 1020.1R 3/ 9 2/ 90/ 9 CAPERS NEARSHORE 2300 55 310/ 6/ 8 N/A FRIPP NEARSHORE NOT AVBL STATION/POSITION TIME TEMP WIND PRES WAVE SWELL AIR SEA DIR/SP/G HT/PER HT/PER/DIR (UTC) (F) (DEG/KT/KT) (MB) (FT/S) (FT/S/D) 5E ST. MARYS GA 2300 63 N/A 2/ 9 FRYING PAN BUOY 0000 56 71 290/ 19/ 23 1017.5R 6/ 5 2/320/15 BUOY 41025 0000 51 300/ 21/ 25 1013.0R 10/ 9 7/150/ 9 CAPE LOOKOUT NC 2300 50 300/ 22/ 26 1014.2R BUOY 41002 NOT AVBL BUOY 41010 0000 69 77 320/ 21/ 27 1019.0R 10/ 8 3/16 ST AUGUSTINE FL 0000 54 270/ 5/ 6 1022.1R $$

USA.gov is the U.S. government's official web portal to all federal, state and local government web resources and services.